When you browse on this site, cookies collect data to enhance your experience and personalize the content and advertising you see.
Visit our Privacy Policy to learn more. By continuing to use the site, you agree to this use of cookies and data.
  • In Latvia
  • List of Countries
  • For 7 days
  • Water Temperature
  • Weather Map
  • Weather Widgets
  • user-avatar
    Login

    Hourly Weather Brecon

    Today, 20 September, Friday

    Time Temperature Precipitation Wind Pressure Humidity
    00:00 +12°C° 0 mm 2 mps 755 mmHg 87%
    01:00 +10°C° 0 mm 3 mps 755 mmHg 89%
    02:00 +10°C° 0 mm 3 mps 754 mmHg 91%
    03:00 +10°C° 0 mm 3 mps 754 mmHg 92%
    04:00 +9°C° 0 mm 3 mps 753 mmHg 93%
    05:00 +9°C° 0 mm 3 mps 753 mmHg 93%
    06:00 +9°C° 0 mm 3 mps 753 mmHg 95%
    07:00 +10°C° 0 mm 4 mps 752 mmHg 89%
    08:00 +12°C° 0 mm 5 mps 752 mmHg 84%
    09:00 +13°C° 0 mm 6 mps 752 mmHg 78%
    10:00 +14°C° 0 mm 6 mps 752 mmHg 73%
    11:00 +15°C° 0 mm 6 mps 751 mmHg 68%
    12:00 +17°C° 0 mm 6 mps 751 mmHg 64%
    13:00 +17°C° 0 mm 7 mps 750 mmHg 62%
    14:00 +17°C° 0 mm 7 mps 749 mmHg 61%
    15:00 +18°C° 0 mm 7 mps 749 mmHg 60%
    16:00 +16°C° 0 mm 7 mps 748 mmHg 62%
    17:00 +15°C° 0 mm 6 mps 747 mmHg 64%
    18:00 +14°C° 0 mm 6 mps 747 mmHg 67%
    19:00 +13°C° 0 mm 6 mps 746 mmHg 66%
    20:00 +13°C° 0 mm 6 mps 746 mmHg 65%
    21:00 +11°C° 0 mm 6 mps 746 mmHg 64%
    22:00 +11°C° 0 mm 6 mps 745 mmHg 67%
    23:00 +10°C° 0 mm 6 mps 745 mmHg 71%

    Tomorrow, 21 September, Saturday

    Time Temperature Precipitation Wind Pressure Humidity
    00:00 +10°C° 0 mm 5 mps 745 mmHg 74%
    01:00 +9°C° 0 mm 5 mps 744 mmHg 76%
    02:00 +9°C° 0 mm 5 mps 743 mmHg 79%
    03:00 +9°C° 0 mm 5 mps 743 mmHg 81%
    04:00 +9°C° 0 mm 5 mps 742 mmHg 81%
    05:00 +9°C° 0 mm 5 mps 742 mmHg 82%
    06:00 +9°C° 0 mm 5 mps 741 mmHg 83%
    07:00 +10°C° 0 mm 5 mps 741 mmHg 80%
    08:00 +13°C° 0 mm 5 mps 741 mmHg 77%
    09:00 +14°C° 0 mm 6 mps 741 mmHg 74%
    10:00 +16°C° 0 mm 6 mps 741 mmHg 72%
    11:00 +17°C° 0 mm 6 mps 741 mmHg 71%
    12:00 +20°C° 0 mm 6 mps 740 mmHg 69%
    13:00 +20°C° 0 mm 6 mps 740 mmHg 70%
    14:00 +21°C° 0 mm 7 mps 740 mmHg 70%
    15:00 +21°C° 0 mm 7 mps 739 mmHg 71%
    16:00 +20°C° 0.3 mm 6 mps 739 mmHg 77%
    17:00 +19°C° 0.3 mm 5 mps 739 mmHg 84%
    18:00 +18°C° 0.3 mm 4 mps 738 mmHg 90%
    19:00 +17°C° 0.2 mm 4 mps 738 mmHg 91%
    20:00 +17°C° 0.2 mm 3 mps 738 mmHg 92%
    21:00 +16°C° 0.2 mm 3 mps 738 mmHg 93%
    22:00 +16°C° 0.6 mm 3 mps 737 mmHg 93%
    23:00 +15°C° 0.6 mm 4 mps 737 mmHg 93%

    Day after tomorrow, 22 September, Sunday

    Time Temperature Precipitation Wind Pressure Humidity
    00:00 +15°C° 0.6 mm 4 mps 736 mmHg 94%
    01:00 +15°C° 0.1 mm 4 mps 736 mmHg 94%
    02:00 +15°C° 0.1 mm 4 mps 735 mmHg 94%
    03:00 +17°C° 0.1 mm 4 mps 735 mmHg 94%
    04:00 +15°C° 0 mm 4 mps 735 mmHg 94%
    05:00 +15°C° 0 mm 4 mps 735 mmHg 95%
    06:00 +16°C° 0 mm 3 mps 734 mmHg 96%
    07:00 +16°C° 1.5 mm 3 mps 735 mmHg 96%
    08:00 +15°C° 1.5 mm 4 mps 735 mmHg 96%
    09:00 +15°C° 1.5 mm 4 mps 735 mmHg 96%
    10:00 +16°C° 0.8 mm 5 mps 735 mmHg 91%
    11:00 +16°C° 0.8 mm 6 mps 735 mmHg 86%
    12:00 +17°C° 0.8 mm 7 mps 736 mmHg 82%
    13:00 +17°C° 0.2 mm 6 mps 736 mmHg 80%
    14:00 +17°C° 0.2 mm 6 mps 735 mmHg 78%
    15:00 +17°C° 0.2 mm 6 mps 735 mmHg 76%
    16:00 +16°C° 0.4 mm 5 mps 735 mmHg 81%
    17:00 +15°C° 0.4 mm 4 mps 735 mmHg 87%
    18:00 +14°C° 0.4 mm 3 mps 736 mmHg 92%
    19:00 +13°C° 0.1 mm 4 mps 736 mmHg 93%
    20:00 +13°C° 0.1 mm 5 mps 737 mmHg 93%
    21:00 +11°C° 0.1 mm 6 mps 737 mmHg 94%
    22:00 +11°C° 0 mm 6 mps 738 mmHg 92%
    23:00 +11°C° 0 mm 6 mps 738 mmHg 90%

    23 September, Monday

    Time Temperature Precipitation Wind Pressure Humidity
    00:00 +11°C° 0 mm 6 mps 738 mmHg 89%
    01:00 +11°C° 0 mm 6 mps 739 mmHg 89%
    02:00 +10°C° 0 mm 6 mps 739 mmHg 90%
    03:00 +10°C° 0 mm 5 mps 739 mmHg 90%
    04:00 +10°C° 0 mm 5 mps 739 mmHg 91%
    05:00 +10°C° 0 mm 4 mps 740 mmHg 92%
    06:00 +10°C° 0 mm 4 mps 740 mmHg 93%
    07:00 +11°C° 0 mm 4 mps 740 mmHg 90%
    08:00 +13°C° 0 mm 5 mps 740 mmHg 86%
    09:00 +14°C° 0 mm 5 mps 740 mmHg 83%
    10:00 +14°C° 0 mm 6 mps 740 mmHg 79%
    11:00 +15°C° 0 mm 6 mps 740 mmHg 75%
    12:00 +16°C° 0 mm 7 mps 740 mmHg 71%
    13:00 +15°C° 0.9 mm 7 mps 739 mmHg 79%
    14:00 +13°C° 0.9 mm 8 mps 738 mmHg 86%
    15:00 +13°C° 0.9 mm 8 mps 737 mmHg 94%
    16:00 +13°C° 2.1 mm 8 mps 737 mmHg 94%
    17:00 +13°C° 2.1 mm 8 mps 736 mmHg 95%
    18:00 +13°C° 2.1 mm 8 mps 736 mmHg 96%
    19:00 +14°C° 1.3 mm 7 mps 736 mmHg 96%
    20:00 +15°C° 1.3 mm 6 mps 736 mmHg 97%
    21:00 +15°C° 1.3 mm 5 mps 736 mmHg 97%
    22:00 +15°C° 0.2 mm 5 mps 736 mmHg 97%
    23:00 +15°C° 0.2 mm 4 mps 736 mmHg 97%

    24 September, Tuesday

    Time Temperature Precipitation Wind Pressure Humidity
    00:00 +15°C° 0.2 mm 4 mps 736 mmHg 97%
    01:00 +14°C° 0.2 mm 4 mps 736 mmHg 97%
    02:00 +14°C° 0.2 mm 4 mps 735 mmHg 97%
    03:00 +14°C° 0.2 mm 4 mps 735 mmHg 97%
    04:00 +14°C° 0.6 mm 4 mps 734 mmHg 97%
    05:00 +14°C° 0.6 mm 4 mps 734 mmHg 97%
    06:00 +14°C° 0.6 mm 4 mps 733 mmHg 98%
    07:00 +14°C° 3.3 mm 4 mps 733 mmHg 97%
    08:00 +14°C° 3.3 mm 4 mps 733 mmHg 97%
    09:00 +14°C° 3.3 mm 4 mps 732 mmHg 96%
    10:00 +15°C° 0.6 mm 5 mps 732 mmHg 91%
    11:00 +15°C° 0.6 mm 6 mps 732 mmHg 86%
    12:00 +16°C° 0.6 mm 7 mps 732 mmHg 81%
    13:00 +16°C° 0.3 mm 7 mps 732 mmHg 83%
    14:00 +15°C° 0.3 mm 7 mps 732 mmHg 85%
    15:00 +15°C° 0.3 mm 8 mps 732 mmHg 86%
    16:00 +15°C° 0.7 mm 8 mps 731 mmHg 88%
    17:00 +13°C° 0.7 mm 8 mps 731 mmHg 90%
    18:00 +13°C° 0.7 mm 9 mps 730 mmHg 92%
    19:00 +13°C° 1.1 mm 9 mps 730 mmHg 93%
    20:00 +13°C° 1.1 mm 10 mps 730 mmHg 93%
    21:00 +13°C° 1.1 mm 11 mps 730 mmHg 93%
    22:00 +13°C° 0.2 mm 11 mps 730 mmHg 92%
    23:00 +13°C° 0.2 mm 11 mps 730 mmHg 91%

    25 September, Wednesday

    Time Temperature Precipitation Wind Pressure Humidity
    00:00 +13°C° 0.2 mm 11 mps 730 mmHg 90%
    01:00 +12°C° 0.2 mm 10 mps 730 mmHg 90%
    02:00 +12°C° 0.2 mm 10 mps 730 mmHg 90%
    03:00 +12°C° 0.2 mm 10 mps 731 mmHg 90%
    04:00 +11°C° 0.1 mm 9 mps 731 mmHg 91%
    05:00 +11°C° 0.1 mm 8 mps 732 mmHg 93%
    06:00 +11°C° 0.1 mm 7 mps 733 mmHg 94%
    07:00 +12°C° 0.1 mm 7 mps 733 mmHg 93%
    08:00 +12°C° 0.1 mm 7 mps 734 mmHg 91%
    09:00 +13°C° 0.1 mm 8 mps 734 mmHg 89%
    10:00 +13°C° 0 mm 8 mps 735 mmHg 87%
    11:00 +14°C° 0 mm 7 mps 735 mmHg 84%
    12:00 +15°C° 0 mm 7 mps 736 mmHg 81%
    13:00 +15°C° 1.2 mm 7 mps 735 mmHg 86%
    14:00 +14°C° 1.2 mm 6 mps 735 mmHg 91%
    15:00 +14°C° 1.2 mm 6 mps 735 mmHg 96%
    16:00 +14°C° 0.6 mm 6 mps 735 mmHg 96%
    17:00 +15°C° 0.6 mm 6 mps 734 mmHg 96%
    18:00 +15°C° 0.6 mm 6 mps 734 mmHg 97%
    19:00 +15°C° 0.9 mm 6 mps 734 mmHg 97%
    20:00 +15°C° 0.9 mm 7 mps 734 mmHg 97%
    21:00 +15°C° 0.9 mm 7 mps 734 mmHg 97%
    22:00 +15°C° 0.9 mm 7 mps 733 mmHg 97%
    23:00 +15°C° 0.9 mm 8 mps 733 mmHg 97%
    Show more